Theta_e
327 329 331 332 333 332 326 324 324 323 323 321 320 319 318 319 319 319 319 318 317 316 316 316 320 322 322 319 321 326 325 325 331 329 322 320 316 317 319 326 330 328 328
322 326 330 332 332 333 330 329 328 326 325 324 321 318 317 317 317 317 317 317 316 316 315 319 320 321 319 322 329 333 334 334 334 333 329 323 320 316 318 321 327 330 330
324 328 330 331 331 333 332 332 332 329 326 323 322 318 317 316 316 317 317 317 316 316 316 318 320 319 321 329 334 336 336 335 335 334 333 330 322 319 317 319 323 329 331
325 328 330 331 332 333 333 333 334 332 328 324 321 318 317 317 317 317 317 316 316 316 316 318 320 320 324 329 333 335 337 335 334 334 333 332 329 321 320 317 319 325 331
326 329 331 332 333 334 335 334 335 334 329 324 321 318 317 317 317 317 317 316 316 316 316 318 320 321 323 327 334 336 337 337 336 335 333 333 331 325 321 321 318 318 324
325 328 331 333 334 335 336 336 336 335 331 325 321 319 318 317 317 317 316 316 316 316 316 317 319 320 321 325 331 335 335 335 335 334 333 334 333 328 323 321 320 320 318
327 327 330 333 335 336 337 337 337 336 332 325 321 319 318 317 317 317 317 316 316 317 317 317 317 318 318 319 324 333 334 335 335 334 334 334 334 327 323 324 322 320 320
326 327 329 333 336 336 337 338 337 336 331 325 322 319 319 317 317 317 317 317 316 316 317 317 317 317 317 317 318 329 333 334 334 334 335 335 335 331 323 322 323 319 320
326 326 328 331 334 337 338 338 338 336 331 325 322 320 319 317 317 317 317 317 316 316 316 317 317 317 317 317 317 318 331 331 333 333 332 335 336 331 323 321 322 320 318
328 327 327 328 332 335 338 338 338 336 330 324 323 321 319 318 317 317 317 317 317 316 316 317 317 317 317 317 318 318 320 330 331 331 332 336 335 333 327 323 322 321 319
329 328 326 326 329 333 337 339 338 336 329 325 324 321 320 319 317 317 317 317 317 317 317 317 317 316 316 316 316 323 325 331 330 331 335 336 333 331 326 323 323 318 317
331 328 326 324 328 334 338 339 338 336 328 324 323 322 321 320 318 318 318 318 318 318 317 317 317 317 317 318 315 328 329 330 329 332 332 332 331 324 319 320 327 326 319
340 332 326 323 327 333 337 338 338 333 326 324 323 323 323 322 320 318 318 318 318 319 319 319 320 320 322 330 327 328 328 325 328 329 330 332 330 326 317 318 318 319 319
339 338 328 324 322 329 334 334 333 329 324 324 324 325 325 324 322 320 319 319 319 319 320 321 323 325 331 333 332 332 330 327 329 328 331 331 330 327 320 321 322 322 321
340 339 337 326 322 323 328 329 328 325 323 324 325 326 326 326 324 322 321 321 320 320 320 323 333 335 336 335 333 334 331 330 328 328 330 330 333 332 331 330 330 328 327
340 340 340 336 325 321 322 325 324 323 324 325 326 327 327 328 326 324 325 324 326 321 322 327 335 335 336 335 335 335 334 334 329 328 328 329 333 332 332 332 331 331 330
339 339 340 331 328 323 321 322 323 323 324 326 327 328 329 329 328 326 327 330 329 328 334 335 335 336 336 336 334 335 334 334 333 332 332 332 331 331 331 331 330 330 330
343 344 343 341 328 325 323 323 323 324 325 326 327 328 330 330 330 329 327 332 330 333 335 336 335 335 335 335 335 334 334 334 334 333 332 332 332 331 333 333 331 331 330
344 345 345 345 344 331 326 325 325 326 327 328 328 329 330 331 332 331 329 332 333 333 335 336 336 336 335 336 334 334 335 335 333 333 332 332 334 335 335 334 334 333 330
342 344 344 345 346 343 340 332 328 330 332 331 330 330 331 332 334 333 333 335 336 333 335 336 336 336 336 333 334 336 335 335 333 332 333 335 334 333 334 335 333 330 327
344 345 345 346 346 345 342 342 335 332 334 337 337 333 335 335 334 334 334 336 337 333 334 336 335 335 334 335 335 335 334 334 334 334 333 335 335 335 334 333 331 328 326
343 343 345 345 345 345 343 338 342 338 338 339 340 338 341 338 337 337 335 334 333 335 333 334 334 334 333 335 336 336 335 334 334 333 334 333 333 333 333 330 327 326 325
341 342 344 345 344 343 343 342 343 343 342 343 342 341 341 341 340 339 337 335 333 333 331 333 333 333 334 336 337 336 335 333 332 332 333 333 333 332 329 327 325 325 324
334 339 341 343 343 343 343 343 340 337 341 341 342 342 342 342 342 340 340 339 336 331 330 331 332 331 333 335 337 336 335 331 330 331 333 330 328 327 326 324 322 320 318
328 336 340 341 342 343 343 342 341 338 332 339 342 342 342 342 340 340 339 336 339 335 329 329 331 330 332 335 336 336 334 332 331 329 329 325 323 317 318 317 315 314 312
328 332 338 340 341 343 342 342 342 339 337 338 340 340 341 340 340 338 336 327 328 332 329 328 330 329 332 335 336 336 332 332 333 332 328 322 318 311 312 311 311 310 309
Wind_Speed
40 39 35 32 29 28 27 27 26 25 24 22 20 19 17 17 17 17 17 16 15 15 15 15 16 16 16 17 17 18 19 19 21 21 19 18 16 16 16 16 16 16 14
44 41 38 34 31 29 27 27 26 24 23 22 21 20 18 18 18 18 17 17 16 15 16 16 17 18 18 18 19 19 17 16 17 20 21 19 16 16 16 15 16 16 16
44 43 40 36 33 31 28 26 25 23 22 21 20 19 18 17 16 16 16 16 16 15 16 16 18 19 19 19 19 16 15 15 15 16 17 18 16 15 15 15 15 15 16
44 43 41 37 34 32 29 27 25 23 22 21 19 18 18 17 16 15 15 14 14 15 15 16 17 18 18 17 16 16 14 12 12 13 14 16 16 13 14 14 14 14 14
42 42 41 37 35 32 29 27 25 23 21 20 19 18 17 16 16 15 14 13 14 14 14 15 15 16 16 15 15 14 13 9 9 10 12 14 14 13 12 12 12 13 13
40 39 39 37 34 32 30 27 24 22 21 20 19 18 17 16 15 15 14 13 12 13 13 13 14 14 14 14 13 12 10 5 5 10 10 11 13 12 12 11 11 12 12
40 39 38 37 34 33 29 27 24 22 21 20 18 18 17 15 15 14 14 13 12 11 11 12 13 13 12 13 13 12 8 5 6 7 7 8 12 12 11 10 10 9 10
39 40 37 36 34 32 30 27 24 22 21 20 18 17 16 15 14 14 14 13 12 11 10 10 10 11 11 11 12 13 7 7 7 6 4 5 9 11 10 8 8 8 8
39 40 39 38 35 32 30 28 24 22 21 20 19 17 16 15 14 13 13 12 11 11 9 8 7 8 9 10 11 12 11 6 2 2 2 3 5 10 10 9 7 7 8
38 38 38 37 36 34 32 29 25 23 21 20 19 18 16 15 13 13 12 11 11 10 9 9 7 7 8 9 10 11 13 8 4 2 3 1 5 9 10 8 6 6 6
38 38 37 38 37 36 35 31 27 24 22 21 20 18 17 15 14 13 12 11 10 9 8 8 7 7 8 9 10 13 14 9 4 1 3 2 7 11 9 7 6 6 8
37 39 38 38 39 38 37 34 31 28 26 25 22 20 17 15 14 13 12 11 10 9 8 8 7 8 9 10 11 12 9 6 4 2 4 5 9 11 7 6 6 7 8
33 36 40 38 37 38 40 37 34 32 30 27 24 20 19 17 16 15 14 13 11 10 9 8 8 8 10 9 9 8 7 4 4 1 2 3 8 10 7 6 7 7 8
34 33 39 38 38 39 40 39 37 35 32 30 26 23 21 20 18 16 14 12 11 10 10 10 9 9 7 3 4 4 3 5 3 2 2 2 8 8 7 7 7 8 8
34 33 34 39 39 40 39 39 37 36 34 31 28 26 23 21 18 16 14 13 12 11 10 10 10 10 5 6 5 4 2 5 8 1 3 1 4 7 8 8 8 8 8
33 32 31 38 40 39 40 40 39 37 34 32 30 27 25 23 20 17 16 14 11 12 11 13 9 7 6 4 1 0 2 2 6 7 4 2 2 4 5 6 9 10 8
34 30 30 33 41 40 41 40 39 38 35 34 31 29 27 25 23 20 17 15 14 14 13 13 11 10 8 4 4 4 4 3 3 4 3 2 3 3 4 5 6 8 11
33 33 29 30 38 42 42 41 40 39 37 36 33 31 29 27 25 23 21 17 17 17 15 14 12 10 9 8 7 8 8 6 5 5 6 5 6 6 7 5 7 6 8
35 34 35 34 32 40 42 43 41 39 39 37 35 34 31 30 29 28 25 20 18 19 18 15 15 14 12 11 11 12 11 10 9 9 7 8 9 10 10 11 9 3 6
38 39 38 37 37 35 37 41 42 39 37 38 38 37 33 32 30 32 28 23 21 22 20 18 16 17 16 16 15 14 14 13 13 13 12 11 10 10 10 8 5 8 12
46 46 47 44 40 39 40 41 44 45 42 40 38 39 35 33 32 34 31 28 27 27 26 25 24 24 21 18 17 17 15 15 14 13 11 10 13 10 10 10 10 10 13
54 52 53 50 44 44 41 41 43 43 43 40 39 38 36 34 33 33 34 32 30 30 29 30 29 25 22 21 19 17 15 16 13 15 14 12 11 12 11 11 9 12 14
59 58 56 56 50 45 44 44 43 42 41 42 43 41 40 38 35 34 35 36 34 32 31 31 30 27 26 25 22 18 8 7 10 8 10 11 12 13 12 11 11 12 15
55 59 58 57 55 50 47 48 48 47 51 51 48 44 43 42 39 38 37 39 39 36 34 31 30 30 28 28 24 21 20 7 8 7 11 15 14 13 11 11 12 14 15
53 58 62 58 58 56 53 51 50 50 47 48 50 51 49 47 45 43 41 43 45 43 38 34 32 32 31 29 28 25 22 20 14 15 20 18 15 10 10 10 11 13 14
56 56 64 63 62 60 59 56 53 50 50 51 49 51 51 52 49 46 45 45 46 46 43 37 34 32 33 31 29 26 25 24 25 22 20 24 19 10 8 9 10 14 13
Wind_Direction
171 165 159 162 157 149 144 142 141 139 135 131 128 127 128 128 128 128 126 124 118 116 115 114 111 111 112 112 108 102 100 91 82 71 66 64 62 66 71 74 74 75 78
164 165 162 163 159 154 149 145 142 139 136 131 126 126 127 129 130 129 126 121 117 117 117 118 118 120 119 114 109 103 98 90 80 68 63 60 60 59 61 67 72 75 78
166 166 163 164 161 157 154 150 147 143 138 133 128 125 125 124 123 122 120 118 117 117 119 120 121 122 122 117 111 102 95 90 83 74 65 52 55 61 67 69 71 74 78
169 167 165 167 164 161 159 156 153 148 143 136 132 127 125 123 121 120 119 118 118 120 121 121 124 128 126 124 115 106 97 92 86 72 71 57 42 51 62 68 72 76 79
173 169 167 169 167 166 163 160 157 153 147 141 135 130 127 126 125 123 122 123 124 125 124 125 128 132 129 132 126 116 103 91 82 73 73 59 35 41 54 61 66 72 76
175 174 171 170 171 170 168 164 160 158 153 147 140 134 132 131 132 131 128 127 129 129 131 133 134 135 134 134 138 124 113 88 81 66 69 48 24 35 40 52 59 63 68
177 176 175 172 174 175 173 168 165 162 159 154 146 140 138 138 139 136 134 133 134 137 140 139 139 137 137 136 143 143 120 103 104 98 64 52 21 26 27 42 51 58 63
181 178 177 176 178 178 177 174 170 167 165 159 153 148 145 143 142 143 143 141 142 143 144 143 141 137 133 134 144 153 138 111 111 107 68 39 13 20 20 27 42 49 54
182 180 179 179 180 181 180 178 176 173 172 166 162 157 153 149 150 152 151 148 149 147 145 141 138 134 131 131 137 153 164 144 100 112 37 359 6 12 11 12 24 42 51
184 184 182 181 181 183 183 183 180 180 177 174 169 166 162 159 159 160 158 157 156 150 150 142 138 139 135 133 137 145 161 174 175 298 324 243 354 359 1 2 11 28 38
187 188 186 184 183 184 184 183 184 184 183 180 177 175 173 169 167 169 167 165 159 158 153 143 144 139 132 134 140 138 150 176 202 233 61 63 359 348 346 352 3 21 31
185 189 190 188 186 185 183 185 186 187 187 186 184 183 181 178 178 179 177 173 171 164 159 155 152 146 143 136 144 155 152 183 205 67 44 1 353 343 340 340 335 358 12
183 187 191 192 190 188 186 188 189 190 190 189 190 189 188 186 189 186 188 184 182 171 168 166 161 159 167 157 156 166 159 188 181 239 306 347 0 355 343 336 337 343 354
191 188 191 194 194 193 192 192 193 193 192 192 192 194 196 195 198 196 194 192 191 180 179 176 171 172 153 163 197 174 124 210 269 226 203 330 10 13 14 5 1 2 358
195 194 195 198 198 198 196 198 197 197 197 196 195 198 200 204 204 201 197 199 200 193 191 183 172 161 128 94 109 60 1 265 233 225 120 104 29 40 33 36 26 17 13
198 200 202 204 203 202 201 202 201 201 201 201 201 202 204 209 208 204 199 197 188 192 187 187 173 156 152 125 113 61 42 43 251 257 249 281 329 16 9 6 4 3 359
203 204 207 207 208 206 207 205 206 205 205 206 206 208 211 212 213 210 206 200 187 174 171 168 175 185 193 189 209 243 237 238 245 275 315 342 329 306 293 323 326 331 331
208 205 209 208 212 212 211 210 210 210 210 212 211 211 214 217 219 216 212 206 197 185 188 194 196 198 203 224 237 239 245 248 233 242 244 252 263 281 269 267 259 288 311
215 215 212 210 210 215 214 216 214 214 216 218 218 217 217 219 220 220 214 209 208 204 206 205 206 211 217 219 250 247 248 242 237 235 238 260 257 262 269 280 305 254 282
216 219 219 218 210 210 213 216 218 218 220 223 224 222 219 218 216 215 216 210 216 217 215 215 220 216 227 241 242 253 245 237 236 237 242 232 254 260 267 258 242 273 292
219 217 219 218 216 203 211 210 215 218 218 222 224 223 215 214 213 212 216 210 215 218 218 219 221 227 226 231 239 242 240 246 232 242 244 234 234 251 233 240 254 256 276
218 220 219 219 221 212 209 218 215 216 220 222 225 222 220 215 215 215 219 218 218 218 219 222 224 223 220 228 239 230 246 247 238 247 248 258 243 236 234 223 238 261 266
214 220 219 219 219 220 216 211 214 213 220 222 224 224 223 222 222 223 223 225 225 225 222 222 227 225 219 224 228 231 220 216 201 219 206 221 221 216 220 226 233 251 265
214 217 220 220 220 219 217 212 212 217 218 222 224 223 227 227 226 227 231 232 230 230 227 225 227 228 223 225 223 229 234 207 175 158 176 183 191 206 214 234 254 269 276
217 214 219 219 220 218 218 219 216 217 225 225 221 225 225 228 230 232 234 233 233 232 230 227 225 224 226 227 225 228 229 226 216 195 178 177 187 172 201 228 250 264 272
218 216 218 217 220 219 218 220 221 221 220 220 224 227 228 229 228 229 232 231 230 230 230 226 225 225 225 227 230 231 232 227 226 227 203 188 188 163 201 237 260 271 274